Date,TemperatureHighF,TemperatureAvgF,TemperatureLowF,DewpointHighF,DewpointAvgF,DewpointLowF,HumidityHigh,HumidityAvg,HumidityLow,PressureMaxIn,PressureMinIn,WindSpeedMaxMPH,WindSpeedAvgMPH,GustSpeedMaxMPH,PrecipitationSumIn
2013-9-1,89,80,73,76,72,70,99,81,57,29.86,29.77,10,2,0,0.14
2013-9-2,83,76,70,75,72,69,99,90,71,29.93,29.80,5,1,0,0.73
2013-9-3,89,78,68,76,71,65,99,82,45,29.97,29.84,5,1,0,0.02
2013-9-4,87,74,65,70,66,64,100,80,46,30.09,29.95,4,1,0,0.00
2013-9-5,89,74,62,69,65,62,100,78,47,30.12,30.01,3,1,0,0.00
2013-9-6,89,74,63,72,66,62,99,81,47,30.11,29.97,2,0,0,0.00
2013-9-7,90,76,66,76,68,-100,100,81,50,30.06,29.92,3,0,0,0.00
2013-9-8,91,78,66,77,71,66,100,83,55,29.98,29.86,3,0,0,0.00
2013-9-9,92,78,70,76,72,70,100,85,55,30.03,29.93,0,0,0,0.00
2013-9-10,90,78,71,77,73,70,99,87,58,30.12,30.03,5,1,0,0.00
2013-9-11,91,81,69,74,70,67,99,74,45,30.16,30.01,3,1,0,0.00
2013-9-12,91,77,68,76,70,67,100,82,52,30.05,29.84,5,1,0,0.11
2013-9-13,83,74,66,71,62,54,100,70,40,29.94,29.83,7,3,0,0.11
2013-9-14,80,65,53,61,54,-100,95,72,45,30.04,29.93,6,1,0,0.00
2013-9-15,84,66,56,68,61,55,100,86,51,30.09,30.01,3,0,0,0.00
2013-9-16,88,72,59,68,62,58,100,75,37,30.13,30.01,4,0,0,0.00
2013-9-17,87,74,63,71,66,62,99,80,56,30.13,30.00,6,2,0,0.00
2013-9-18,72,68,66,68,64,62,94,85,80,30.14,30.07,5,2,0,0.00
2013-9-19,87,74,65,70,67,64,98,80,54,30.12,29.98,4,1,0,0.00
2013-9-20,88,75,64,71,67,63,100,80,53,30.02,29.79,4,1,0,0.02
2013-9-21,74,68,57,72,64,-100,99,91,66,29.83,29.69,7,2,0,1.82
2013-9-22,79,66,53,59,56,52,99,75,47,29.88,29.78,6,2,0,0.00
2013-9-23,82,67,52,66,60,51,99,82,50,29.96,29.86,5,1,0,0.00
2013-9-24,74,67,60,69,65,59,100,93,84,29.96,29.81,5,2,0,0.00
2013-9-25,80,71,67,71,68,65,98,90,73,29.83,29.74,4,1,0,0.00
2013-9-26,83,71,63,68,65,62,98,83,54,29.98,29.83,3,0,0,0.00
2013-9-27,83,68,57,69,62,57,100,84,47,30.09,29.98,4,1,0,0.00
2013-9-28,78,64,59,64,58,-100,99,85,55,30.17,30.02,5,1,0,0.00
2013-9-29,75,66,58,62,60,57,98,83,59,30.11,29.97,5,1,0,0.00
2013-9-30,77,68,63,64,62,60,94,84,65,30.04,29.93,3,1,0,0.00